| << 11.8. | 13.8. >> |
|
Windrichtung in Grad |
Windgeschw. in m/s |
Windspitzen in m/s |
Temp.Minima in °C |
Temperatur in °C |
Temp.Maxima in °C |
Luftfeuchte in % |
Luftdruck in hPa |
Taupunkt in °C |
Niederschlag in mm |
|
|---|---|---|---|---|---|---|---|---|---|---|
| ▲ Maxima | 1,6 | 4,3 | 30,5 | 30,8 | 31,1 | 69,0 | 1013,6 | 9,3 | 0,0 | |
| Ø Mittelwert | 115,4 | 0,7 | 2,0 | 21,5 | 21,8 | 22,0 | 42,0 | 1012,5 | 7,5 | 0,0 |
| ▼ Minima | 0,1 | 0,4 | 12,1 | 12,2 | 12,5 | 20,4 | 1010,6 | 3,6 | 0,0 | |
| ∑ Summe | 0,0 |
| Uhrzeit (MEZ) | Windrichtung in Grad | Windgeschw. in m/s | Windspitzen in m/s | Temp.Minima in °C | Temperatur in °C | Temp.Maxima in °C | Luftfeuchte in % | Luftdruck in hPa | Taupunkt in °C | Niederschlag in mm |
|---|---|---|---|---|---|---|---|---|---|---|
| 00:00 | 235,8 | 0,7 | 1,0 | 15,0 | 15,3 | 15,6 | 58,0 | 1013,3 | 8,3 | 0,0 |
| 00:10 | 233,0 | 0,9 | 1,1 | 14,7 | 14,9 | 15,0 | 59,3 | 1013,3 | 8,2 | 0,0 |
| 00:20 | 241,4 | 0,6 | 0,9 | 14,6 | 14,7 | 14,8 | 59,9 | 1013,3 | 8,3 | 0,0 |
| 00:30 | 235,8 | 0,8 | 1,0 | 14,4 | 14,5 | 14,7 | 60,9 | 1013,4 | 8,2 | 0,0 |
| 00:40 | 232,2 | 0,8 | 1,1 | 14,3 | 14,4 | 14,5 | 61,1 | 1013,4 | 8,3 | 0,0 |
| 00:50 | 234,5 | 0,9 | 1,2 | 14,2 | 14,3 | 14,4 | 61,6 | 1013,3 | 8,3 | 0,0 |
| 01:00 | 233,0 | 0,8 | 1,1 | 14,0 | 14,1 | 14,2 | 62,0 | 1013,3 | 8,2 | 0,0 |
| 01:10 | 238,2 | 0,6 | 0,9 | 13,8 | 13,9 | 14,0 | 62,6 | 1013,3 | 8,2 | 0,0 |
| 01:20 | 228,9 | 0,7 | 1,2 | 13,9 | 14,0 | 14,1 | 62,2 | 1013,3 | 8,1 | 0,0 |
| 01:30 | 236,1 | 0,5 | 1,0 | 13,9 | 14,2 | 14,4 | 60,9 | 1013,3 | 8,1 | 0,0 |
| 01:40 | 228,9 | 0,6 | 0,9 | 14,0 | 14,2 | 14,3 | 61,2 | 1013,3 | 8,1 | 0,0 |
| 01:50 | 235,5 | 0,5 | 0,8 | 14,0 | 14,1 | 14,2 | 61,7 | 1013,4 | 8,2 | 0,0 |
| 02:00 | 229,3 | 0,5 | 0,9 | 13,8 | 14,0 | 14,1 | 62,3 | 1013,4 | 8,2 | 0,0 |
| 02:10 | 243,7 | 0,5 | 0,8 | 13,7 | 13,9 | 14,1 | 62,7 | 1013,4 | 8,3 | 0,0 |
| 02:20 | 231,5 | 0,4 | 0,7 | 13,5 | 13,7 | 13,8 | 63,4 | 1013,4 | 8,2 | 0,0 |
| 02:30 | 249,3 | 0,6 | 0,7 | 13,1 | 13,4 | 13,7 | 64,6 | 1013,4 | 8,3 | 0,0 |
| 02:40 | 232,6 | 0,7 | 1,1 | 12,9 | 13,1 | 13,3 | 66,0 | 1013,4 | 8,2 | 0,0 |
| 02:50 | 240,0 | 0,6 | 0,9 | 12,9 | 13,1 | 13,2 | 66,8 | 1013,4 | 8,4 | 0,0 |
| 03:00 | 242,4 | 0,7 | 0,9 | 12,6 | 12,7 | 12,9 | 68,5 | 1013,3 | 8,4 | 0,0 |
| 03:10 | 230,7 | 0,7 | 0,9 | 12,5 | 12,6 | 12,8 | 69,0 | 1013,3 | 8,5 | 0,0 |
| 03:20 | 231,6 | 0,7 | 0,9 | 12,8 | 12,9 | 13,0 | 68,1 | 1013,2 | 8,5 | 0,0 |
| 03:30 | 234,2 | 0,6 | 0,9 | 12,6 | 12,7 | 12,8 | 68,6 | 1013,2 | 8,5 | 0,0 |
| 03:40 | 226,0 | 0,5 | 0,7 | 12,7 | 12,8 | 12,8 | 67,9 | 1013,2 | 8,4 | 0,0 |
| 03:50 | 239,0 | 0,3 | 0,6 | 12,7 | 12,8 | 13,0 | 67,0 | 1013,3 | 8,3 | 0,0 |
| 04:00 | 194,8 | 0,3 | 0,7 | 12,7 | 12,9 | 13,1 | 66,8 | 1013,3 | 8,3 | 0,0 |
| 04:10 | 148,4 | 0,3 | 0,9 | 12,9 | 13,0 | 13,1 | 66,2 | 1013,3 | 8,3 | 0,0 |
| 04:20 | 136,4 | 0,4 | 1,0 | 12,9 | 13,1 | 13,3 | 65,7 | 1013,2 | 8,3 | 0,0 |
| 04:30 | 207,3 | 0,2 | 0,8 | 12,9 | 13,1 | 13,3 | 66,0 | 1013,2 | 8,4 | 0,0 |
| 04:40 | 271,4 | 0,1 | 0,4 | 12,5 | 12,7 | 13,0 | 67,6 | 1013,3 | 8,4 | 0,0 |
| 04:50 | 215,8 | 0,2 | 0,6 | 12,5 | 12,6 | 12,7 | 67,8 | 1013,4 | 8,3 | 0,0 |
| 05:00 | 235,0 | 0,3 | 0,6 | 12,4 | 12,5 | 12,6 | 68,0 | 1013,4 | 8,3 | 0,0 |
| 05:10 | 233,7 | 0,3 | 0,7 | 12,1 | 12,2 | 12,5 | 69,0 | 1013,4 | 8,2 | 0,0 |
| 05:20 | 164,1 | 0,1 | 0,5 | 12,2 | 12,3 | 12,5 | 68,7 | 1013,4 | 8,3 | 0,0 |
| 05:30 | 268,5 | 0,1 | 0,4 | 12,4 | 12,5 | 12,6 | 68,5 | 1013,5 | 8,4 | 0,0 |
| 05:40 | 268,1 | 0,2 | 0,5 | 12,6 | 12,6 | 12,8 | 68,3 | 1013,5 | 8,5 | 0,0 |
| 05:50 | 61,9 | 0,3 | 0,8 | 12,8 | 13,3 | 13,7 | 65,9 | 1013,4 | 8,5 | 0,0 |
| 06:00 | 25,2 | 0,2 | 1,1 | 13,6 | 13,9 | 14,4 | 63,8 | 1013,3 | 8,6 | 0,0 |
| 06:10 | 85,1 | 0,4 | 1,1 | 14,2 | 14,4 | 14,7 | 62,0 | 1013,3 | 8,6 | 0,0 |
| 06:20 | 98,1 | 0,4 | 1,3 | 14,4 | 14,7 | 15,0 | 61,3 | 1013,4 | 8,7 | 0,0 |
| 06:30 | 271,8 | 0,2 | 0,8 | 14,8 | 15,1 | 15,4 | 60,1 | 1013,4 | 8,8 | 0,0 |
| 06:40 | 355,8 | 0,3 | 0,9 | 15,3 | 15,6 | 15,8 | 58,8 | 1013,5 | 8,9 | 0,0 |
| 06:50 | 152,9 | 0,5 | 1,5 | 15,6 | 15,8 | 16,0 | 58,4 | 1013,5 | 8,9 | 0,0 |
| 07:00 | 76,1 | 0,4 | 1,3 | 15,8 | 16,1 | 16,4 | 57,7 | 1013,6 | 9,0 | 0,0 |
| 07:10 | 253,7 | 0,4 | 1,1 | 16,2 | 16,4 | 16,9 | 57,0 | 1013,6 | 9,2 | 0,0 |
| 07:20 | 95,2 | 0,6 | 1,8 | 16,8 | 17,0 | 17,4 | 55,4 | 1013,5 | 9,2 | 0,0 |
| 07:30 | 126,0 | 0,7 | 2,3 | 17,0 | 17,4 | 17,7 | 54,4 | 1013,5 | 9,2 | 0,0 |
| 07:40 | 108,7 | 0,8 | 2,5 | 17,6 | 17,9 | 18,2 | 51,5 | 1013,5 | 8,8 | 0,0 |
| 07:50 | 95,0 | 1,0 | 3,0 | 17,5 | 17,8 | 18,1 | 51,5 | 1013,6 | 8,6 | 0,0 |
| Uhrzeit (MEZ) | Windrichtung in Grad | Windgeschw. in m/s | Windspitzen in m/s | Temp.Minima in °C | Temperatur in °C | Temp.Maxima in °C | Luftfeuchte in % | Luftdruck in hPa | Taupunkt in °C | Niederschlag in mm |
|---|---|---|---|---|---|---|---|---|---|---|
| 08:00 | 102,2 | 0,9 | 2,7 | 17,6 | 17,9 | 18,2 | 51,9 | 1013,6 | 8,9 | 0,0 |
| 08:10 | 76,7 | 0,8 | 2,2 | 18,0 | 18,3 | 18,7 | 50,8 | 1013,6 | 8,9 | 0,0 |
| 08:20 | 163,1 | 0,7 | 1,9 | 18,4 | 18,7 | 19,1 | 50,7 | 1013,6 | 9,3 | 0,0 |
| 08:30 | 52,2 | 0,8 | 2,5 | 18,8 | 19,1 | 19,4 | 48,6 | 1013,6 | 9,0 | 0,0 |
| 08:40 | 96,4 | 0,7 | 2,2 | 19,1 | 19,6 | 20,1 | 47,3 | 1013,6 | 9,1 | 0,0 |
| 08:50 | 88,4 | 0,8 | 2,4 | 19,6 | 19,9 | 20,3 | 46,4 | 1013,6 | 9,0 | 0,0 |
| 09:00 | 109,0 | 0,8 | 2,3 | 19,8 | 20,2 | 20,5 | 45,9 | 1013,6 | 9,0 | 0,0 |
| 09:10 | 62,8 | 0,7 | 2,2 | 20,2 | 20,6 | 20,8 | 44,6 | 1013,5 | 9,0 | 0,0 |
| 09:20 | 111,0 | 0,9 | 2,4 | 20,8 | 21,0 | 21,2 | 43,9 | 1013,5 | 9,0 | 0,0 |
| 09:30 | 86,6 | 1,1 | 3,4 | 20,7 | 21,1 | 21,3 | 43,8 | 1013,5 | 9,0 | 0,0 |
| 09:40 | 46,8 | 1,3 | 2,7 | 20,9 | 21,2 | 21,5 | 43,4 | 1013,5 | 9,0 | 0,0 |
| 09:50 | 42,7 | 1,0 | 2,7 | 21,2 | 21,7 | 22,1 | 42,3 | 1013,4 | 9,1 | 0,0 |
| 10:00 | 69,7 | 0,7 | 2,6 | 21,6 | 22,2 | 22,7 | 41,2 | 1013,4 | 9,2 | 0,0 |
| 10:10 | 24,4 | 0,8 | 2,2 | 22,7 | 23,0 | 23,3 | 39,5 | 1013,4 | 9,2 | 0,0 |
| 10:20 | 77,1 | 0,9 | 2,7 | 23,0 | 23,2 | 23,6 | 38,4 | 1013,3 | 8,9 | 0,0 |
| 10:30 | 81,2 | 1,0 | 2,9 | 23,3 | 23,6 | 24,0 | 37,5 | 1013,2 | 8,9 | 0,0 |
| 10:40 | 91,0 | 1,0 | 2,9 | 23,4 | 23,8 | 24,1 | 37,1 | 1013,1 | 8,8 | 0,0 |
| 10:50 | 128,1 | 0,8 | 2,4 | 23,8 | 24,3 | 24,8 | 35,9 | 1013,1 | 8,8 | 0,0 |
| 11:00 | 101,0 | 1,3 | 3,5 | 24,5 | 24,8 | 25,0 | 34,3 | 1013,0 | 8,3 | 0,0 |
| 11:10 | 63,8 | 1,2 | 3,4 | 24,5 | 24,7 | 25,2 | 33,7 | 1013,0 | 8,0 | 0,0 |
| 11:20 | 71,5 | 1,3 | 3,5 | 24,6 | 25,0 | 25,3 | 33,1 | 1013,0 | 8,0 | 0,0 |
| 11:30 | 44,7 | 1,2 | 3,0 | 24,7 | 25,1 | 25,7 | 33,3 | 1013,0 | 8,2 | 0,0 |
| 11:40 | 62,4 | 1,2 | 3,7 | 25,1 | 25,4 | 25,7 | 31,9 | 1012,9 | 7,8 | 0,0 |
| 11:50 | 46,6 | 1,0 | 2,6 | 25,3 | 25,9 | 26,4 | 31,1 | 1012,9 | 7,8 | 0,0 |
| 12:00 | 110,0 | 0,7 | 3,1 | 25,7 | 26,0 | 26,6 | 30,4 | 1012,9 | 7,6 | 0,0 |
| 12:10 | 55,9 | 1,2 | 3,9 | 25,6 | 26,3 | 26,8 | 29,2 | 1012,8 | 7,1 | 0,0 |
| 12:20 | 61,9 | 0,8 | 3,8 | 25,6 | 26,4 | 27,1 | 27,9 | 1012,7 | 6,6 | 0,0 |
| 12:30 | 84,0 | 0,9 | 2,9 | 26,5 | 27,0 | 27,3 | 26,5 | 1012,6 | 6,1 | 0,0 |
| 12:40 | 120,4 | 1,1 | 3,3 | 27,1 | 27,3 | 27,6 | 26,1 | 1012,6 | 6,1 | 0,0 |
| 12:50 | 63,0 | 1,0 | 3,0 | 27,0 | 27,3 | 27,6 | 24,9 | 1012,5 | 5,4 | 0,0 |
| 13:00 | 119,3 | 1,1 | 2,7 | 27,1 | 27,4 | 27,8 | 24,6 | 1012,5 | 5,2 | 0,0 |
| 13:10 | 104,8 | 0,9 | 3,3 | 27,2 | 27,7 | 28,1 | 23,2 | 1012,5 | 4,5 | 0,0 |
| 13:20 | 68,6 | 1,2 | 3,7 | 27,5 | 27,9 | 28,3 | 22,4 | 1012,4 | 4,1 | 0,0 |
| 13:30 | 89,4 | 1,1 | 3,3 | 27,8 | 28,3 | 28,8 | 22,7 | 1012,3 | 4,6 | 0,0 |
| 13:40 | 85,5 | 0,9 | 3,2 | 27,9 | 28,4 | 28,9 | 22,8 | 1012,3 | 4,8 | 0,0 |
| 13:50 | 29,8 | 0,8 | 2,2 | 27,9 | 28,2 | 28,8 | 22,8 | 1012,2 | 4,8 | 0,0 |
| 14:00 | 101,5 | 0,7 | 2,4 | 28,6 | 28,9 | 29,4 | 21,2 | 1012,1 | 4,1 | 0,0 |
| 14:10 | 95,3 | 1,1 | 4,3 | 28,8 | 29,2 | 29,5 | 20,4 | 1012,1 | 3,6 | 0,0 |
| 14:20 | 118,5 | 0,8 | 2,3 | 28,7 | 29,1 | 29,5 | 21,3 | 1012,0 | 4,3 | 0,0 |
| 14:30 | 144,4 | 0,9 | 2,6 | 29,0 | 29,3 | 29,6 | 21,6 | 1011,9 | 4,7 | 0,0 |
| 14:40 | 100,5 | 0,9 | 3,6 | 29,2 | 29,5 | 29,9 | 21,3 | 1011,9 | 4,6 | 0,0 |
| 14:50 | 104,9 | 1,1 | 3,8 | 29,1 | 29,6 | 30,0 | 21,0 | 1011,8 | 4,4 | 0,0 |
| 15:00 | 125,1 | 1,0 | 3,8 | 29,2 | 29,6 | 30,1 | 21,4 | 1011,7 | 4,7 | 0,0 |
| 15:10 | 46,1 | 1,0 | 3,4 | 29,4 | 30,0 | 30,4 | 21,0 | 1011,6 | 4,7 | 0,0 |
| 15:20 | 61,4 | 1,0 | 2,7 | 29,4 | 29,8 | 30,2 | 20,9 | 1011,6 | 4,6 | 0,0 |
| 15:30 | 48,0 | 1,6 | 3,9 | 29,5 | 29,9 | 30,1 | 21,2 | 1011,5 | 4,7 | 0,0 |
| 15:40 | 48,6 | 1,3 | 4,1 | 29,2 | 29,5 | 29,7 | 21,5 | 1011,5 | 4,7 | 0,0 |
| 15:50 | 44,2 | 1,1 | 3,1 | 29,4 | 29,8 | 30,1 | 21,9 | 1011,4 | 5,3 | 0,0 |
| Uhrzeit (MEZ) | Windrichtung in Grad | Windgeschw. in m/s | Windspitzen in m/s | Temp.Minima in °C | Temperatur in °C | Temp.Maxima in °C | Luftfeuchte in % | Luftdruck in hPa | Taupunkt in °C | Niederschlag in mm |
|---|---|---|---|---|---|---|---|---|---|---|
| 16:00 | 60,8 | 1,0 | 2,8 | 29,7 | 30,1 | 30,5 | 22,2 | 1011,3 | 5,8 | 0,0 |
| 16:10 | 55,0 | 1,4 | 3,4 | 29,5 | 30,0 | 30,4 | 22,5 | 1011,3 | 5,8 | 0,0 |
| 16:20 | 111,7 | 1,2 | 3,4 | 29,6 | 29,9 | 30,2 | 22,9 | 1011,2 | 6,1 | 0,0 |
| 16:30 | 128,3 | 1,0 | 2,3 | 29,9 | 30,1 | 30,4 | 22,8 | 1011,2 | 6,2 | 0,0 |
| 16:40 | 154,5 | 0,6 | 1,8 | 29,9 | 30,3 | 30,9 | 22,7 | 1011,2 | 6,4 | 0,0 |
| 16:50 | 103,4 | 1,0 | 3,3 | 30,5 | 30,8 | 31,1 | 22,5 | 1011,1 | 6,6 | 0,0 |
| 17:00 | 106,3 | 1,0 | 3,6 | 30,0 | 30,3 | 30,6 | 23,1 | 1010,9 | 6,6 | 0,0 |
| 17:10 | 66,6 | 1,1 | 2,7 | 30,3 | 30,6 | 30,9 | 22,9 | 1010,9 | 6,7 | 0,0 |
| 17:20 | 119,2 | 0,9 | 2,9 | 30,0 | 30,4 | 30,6 | 22,8 | 1010,8 | 6,5 | 0,0 |
| 17:30 | 78,4 | 0,8 | 3,4 | 30,0 | 30,4 | 31,0 | 22,5 | 1010,7 | 6,3 | 0,0 |
| 17:40 | 80,7 | 1,2 | 3,2 | 30,2 | 30,6 | 31,0 | 22,1 | 1010,7 | 6,1 | 0,0 |
| 17:50 | 95,5 | 1,1 | 2,8 | 30,1 | 30,4 | 30,7 | 22,3 | 1010,7 | 6,0 | 0,0 |
| 18:00 | 99,5 | 1,0 | 2,6 | 29,9 | 30,2 | 30,5 | 22,4 | 1010,7 | 6,0 | 0,0 |
| 18:10 | 107,7 | 0,8 | 2,3 | 30,1 | 30,4 | 30,7 | 22,3 | 1010,7 | 6,1 | 0,0 |
| 18:20 | 101,8 | 0,9 | 3,3 | 30,0 | 30,3 | 30,7 | 22,1 | 1010,6 | 5,9 | 0,0 |
| 18:30 | 95,6 | 1,0 | 2,5 | 29,5 | 29,9 | 30,4 | 22,6 | 1010,7 | 5,9 | 0,0 |
| 18:40 | 122,0 | 0,7 | 1,9 | 29,4 | 29,6 | 29,8 | 23,0 | 1010,7 | 6,0 | 0,0 |
| 18:50 | 100,5 | 0,9 | 2,3 | 28,8 | 29,3 | 29,7 | 23,3 | 1010,7 | 6,0 | 0,0 |
| 19:00 | 119,7 | 0,5 | 1,2 | 28,1 | 28,5 | 28,9 | 24,8 | 1010,7 | 6,4 | 0,0 |
| 19:10 | 178,6 | 0,4 | 1,1 | 27,4 | 27,8 | 28,2 | 26,5 | 1010,7 | 7,0 | 0,0 |
| 19:20 | 237,3 | 0,5 | 0,9 | 26,1 | 26,8 | 27,4 | 28,8 | 1010,7 | 7,4 | 0,0 |
| 19:30 | 203,2 | 0,4 | 1,1 | 25,5 | 25,8 | 26,1 | 30,1 | 1010,8 | 7,3 | 0,0 |
| 19:40 | 79,1 | 0,6 | 1,7 | 25,5 | 25,7 | 26,0 | 30,6 | 1010,9 | 7,5 | 0,0 |
| 19:50 | 42,9 | 0,4 | 1,3 | 25,6 | 25,7 | 25,9 | 31,4 | 1011,0 | 7,9 | 0,0 |
| 20:00 | 55,1 | 0,8 | 2,2 | 25,6 | 25,8 | 26,1 | 31,3 | 1011,1 | 7,9 | 0,0 |
| 20:10 | 7,9 | 0,5 | 1,2 | 25,3 | 25,6 | 25,9 | 31,7 | 1011,1 | 8,1 | 0,0 |
| 20:20 | 37,8 | 0,8 | 1,8 | 25,1 | 25,3 | 25,5 | 32,7 | 1011,2 | 8,1 | 0,0 |
| 20:30 | 14,6 | 0,4 | 1,5 | 24,5 | 24,8 | 25,2 | 33,5 | 1011,2 | 8,2 | 0,0 |
| 20:40 | 38,8 | 0,7 | 1,4 | 24,4 | 24,6 | 24,8 | 33,9 | 1011,2 | 8,1 | 0,0 |
| 20:50 | 25,9 | 0,5 | 1,4 | 24,0 | 24,3 | 24,6 | 34,4 | 1011,3 | 8,2 | 0,0 |
| 21:00 | 167,4 | 0,4 | 1,1 | 23,4 | 23,8 | 24,0 | 35,3 | 1011,3 | 8,2 | 0,0 |
| 21:10 | 93,1 | 0,4 | 1,1 | 23,3 | 23,5 | 23,6 | 35,5 | 1011,4 | 8,0 | 0,0 |
| 21:20 | 172,7 | 0,3 | 1,1 | 22,9 | 23,2 | 23,6 | 36,3 | 1011,4 | 8,2 | 0,0 |
| 21:30 | 238,9 | 0,4 | 0,8 | 22,0 | 22,4 | 22,9 | 38,2 | 1011,5 | 8,3 | 0,0 |
| 21:40 | 128,5 | 0,2 | 0,9 | 21,7 | 21,9 | 22,0 | 39,3 | 1011,7 | 8,3 | 0,0 |
| 21:50 | 142,3 | 0,2 | 0,8 | 21,8 | 21,9 | 22,0 | 38,8 | 1011,8 | 8,1 | 0,0 |
| 22:00 | 200,0 | 0,2 | 0,6 | 21,4 | 21,7 | 21,9 | 39,7 | 1011,8 | 8,3 | 0,0 |
| 22:10 | 126,9 | 0,3 | 1,0 | 21,2 | 21,3 | 21,5 | 40,4 | 1011,9 | 8,2 | 0,0 |
| 22:20 | 132,5 | 0,3 | 1,0 | 21,2 | 21,4 | 21,5 | 40,3 | 1011,9 | 8,2 | 0,0 |
| 22:30 | 187,5 | 0,3 | 1,1 | 20,8 | 21,0 | 21,4 | 41,3 | 1012,0 | 8,3 | 0,0 |
| 22:40 | 124,9 | 0,5 | 1,8 | 20,7 | 20,9 | 21,2 | 40,4 | 1012,0 | 7,8 | 0,0 |
| 22:50 | 113,7 | 0,7 | 1,7 | 21,1 | 21,2 | 21,5 | 39,2 | 1012,1 | 7,5 | 0,0 |
| 23:00 | 128,5 | 0,5 | 1,9 | 21,0 | 21,2 | 21,5 | 39,3 | 1012,1 | 7,6 | 0,0 |
| 23:10 | 118,0 | 0,8 | 1,8 | 21,0 | 21,2 | 21,4 | 38,9 | 1012,1 | 7,4 | 0,0 |
| 23:20 | 125,4 | 0,7 | 1,7 | 20,8 | 21,0 | 21,2 | 38,1 | 1012,1 | 6,9 | 0,0 |
| 23:30 | 133,1 | 0,8 | 1,8 | 20,8 | 20,9 | 21,1 | 37,7 | 1012,2 | 6,6 | 0,0 |
| 23:40 | 144,9 | 0,8 | 2,1 | 20,4 | 20,7 | 21,0 | 37,8 | 1012,2 | 6,5 | 0,0 |
| 23:50 | 136,5 | 0,6 | 1,6 | 20,1 | 20,4 | 20,7 | 38,4 | 1012,2 | 6,5 | 0,0 |
| << 11.8. | 13.8. >> |